ONEWEB-0031, 45431

Orbit data source: Space-Track

ONEWEB-0031, 45431 is a payload satellite owned by One Web (UK) in LEO that was launched on Sat, 21 Mar 2020 UTC via a SOYUZ-2-1B launch vehicle from the Tyuratam Missile And Space Complex (TTMTR). Payload-class satellites include a variety of spacecraft equipped with specific instruments for various scientific and technological missions. These include communications satellites like Starlink; space stations such as the ISS; scientific satellites like the Hubble; Earth observation satellites from companies like Planet Labs, Umbra, and HawkEye 360; GPS; miniature CubeSats for education and research; and military/defense satellites.

Loading next visibility...
Identifier
45431, 2020-020H
Orbit
LEO
Country
Flag of UKUK
Related business
Manufacturer
One Web
Mission
Operational Commercial Communications
Bus & Motor
ARROW, Unknown motor
Mass
148 kg wet, ~140 kg dry
Launch date (UTC)
2020-03-21 (6 years ago)
Launch vehicle
SOYUZ-2-1B
Launch site
Tyuratam Missile And Space Complex (TTMTR)
Object type
Payload
Rocket body
Debris
Shape & HBR
Trap Box + 2 Pan, 6.7 m
Radar Cross Section
3.464 m², Large (>1 m²)

Expand to show TLE details & history
Last TLE update: 5 hours ago

TLE from 5 hours ago
0 ONEWEB-0031
1 45431U 20020H   26255.85238453 -.00000119  00000-0 -37153-3 0  9994
2 45431  87.8959   3.6399 0001658  95.7404 264.3913 13.11415063314140
Epoch: 2026-09-12T20:27Z
TLE epoch observation values (Epoch: 2026-09-12T20:27:26.023Z)
Latitude
-0.00002°
Longitude
64.92603°
Altitude
1,220.702 km
Speed
7.244 km/s
True Right ascension
00h 14m 33s
True Declination
0° 00' 00"
Sunlit
Object was in full shadow at epoch
Visualization orbit readout
Latitude
Unknown
Longitude
Unknown
Altitude
Unknown
Speed
Unknown
Apparent Right ascension
Unknown
Apparent Declination
Unknown
Sunlit
N/A
Visualization observer readout
Local Sidereal Time
18:22:50
Azimuth
Unknown
Elevation
Unknown
Doppler factor
Unknown
Orbital elements
Apogee altitude
1,216.067 km
Perigee altitude
1,213.549 km
Semi-major axis
7,592.945 km
Eccentricity
0.00017
Inclination
87.8959°
RAAN
3.6399°
Arg. of periapsis
95.7404°
True anomaly
264.37239°
Mean anomaly
264.3913°
Eccentric anomaly
264.38185°
Mean motion
3.28041 °/min
Orbital period
109.74 mins
BSTAR
-0.00037153
Loading maneuver chart data...
Computing Atmospheric mass density...
Loading historical data...
Loading historical data...
Loading historical data...
Loading historical data...
Loading historical data...
Loading historical data...
Loading historical data...

Documentation

Showing up to 5 results
|